{"data":{"norad_id":57666,"epoch":"2026-05-24T18:04:10.996320Z","epoch_age_seconds":89707,"freshness":"FRESH","line1":"1 57666U 23124D   26144.75290505  .00027321  00000+0  86804-3 0  9995","line2":"2 57666  53.1605 274.9339 0000675  41.4155 318.6898 15.32464099154328","mean_motion":15.32464099,"eccentricity":6.75e-5,"inclination_deg":53.1605,"raan_deg":274.9339,"arg_perigee_deg":41.4155,"mean_anomaly_deg":318.6898,"bstar":0.00086804,"rev_number":15432,"period_min":93.966312224845,"perigee_km":468.00105682197,"apogee_km":468.92534784929,"semimajor_km":6846.6002023356,"source":"CELESTRAK","updated_at":"2026-05-25T13:38:18.367178Z"}}